When you browse on this site, cookies collect data to enhance your experience and personalize the content and advertising you see.
Visit our Privacy Policy to learn more. By continuing to use the site, you agree to this use of cookies and data.
EN

Hourly Weather Myl's'k

Today, 3 August, Monday

Time Temperature Precipitation Wind Pressure Humidity
00:00 +15°C° 0 mm 2 mps 745 mmHg 82%
01:00 +15°C° 0 mm 2 mps 745 mmHg 84%
02:00 +15°C° 0 mm 2 mps 745 mmHg 84%
03:00 +15°C° 0 mm 2 mps 745 mmHg 85%
04:00 +14°C° 0 mm 2 mps 745 mmHg 85%
05:00 +14°C° 0 mm 2 mps 745 mmHg 86%
06:00 +16°C° 0 mm 2 mps 745 mmHg 82%
07:00 +17°C° 0 mm 3 mps 745 mmHg 78%
08:00 +19°C° 0 mm 3 mps 745 mmHg 74%
09:00 +20°C° 0 mm 4 mps 745 mmHg 71%
10:00 +21°C° 0 mm 4 mps 745 mmHg 67%
11:00 +22°C° 0 mm 5 mps 745 mmHg 63%
12:00 +23°C° 0 mm 5 mps 744 mmHg 62%
13:00 +25°C° 0 mm 5 mps 744 mmHg 61%
14:00 +25°C° 0 mm 5 mps 744 mmHg 60%
15:00 +25°C° 0 mm 5 mps 743 mmHg 62%
16:00 +25°C° 0 mm 5 mps 743 mmHg 64%
17:00 +25°C° 0 mm 5 mps 743 mmHg 66%
18:00 +23°C° 0 mm 4 mps 743 mmHg 73%
19:00 +21°C° 0 mm 4 mps 742 mmHg 80%
20:00 +20°C° 0 mm 3 mps 742 mmHg 87%
21:00 +19°C° 0 mm 4 mps 742 mmHg 86%
22:00 +19°C° 0 mm 4 mps 742 mmHg 86%
23:00 +18°C° 0 mm 4 mps 742 mmHg 86%

Tomorrow, 4 August, Tuesday

Time Temperature Precipitation Wind Pressure Humidity
00:00 +18°C° 0 mm 4 mps 742 mmHg 84%
01:00 +18°C° 0 mm 4 mps 742 mmHg 83%
02:00 +18°C° 0 mm 4 mps 742 mmHg 81%
03:00 +17°C° 0 mm 4 mps 742 mmHg 79%
04:00 +17°C° 0 mm 4 mps 741 mmHg 77%
05:00 +15°C° 0 mm 4 mps 741 mmHg 75%
06:00 +17°C° 0 mm 4 mps 741 mmHg 74%
07:00 +19°C° 0 mm 4 mps 741 mmHg 74%
08:00 +20°C° 0 mm 5 mps 741 mmHg 74%
09:00 +21°C° 0 mm 5 mps 741 mmHg 71%
10:00 +23°C° 0 mm 6 mps 742 mmHg 67%
11:00 +26°C° 0 mm 6 mps 742 mmHg 64%
12:00 +27°C° 0 mm 6 mps 742 mmHg 62%
13:00 +27°C° 0 mm 7 mps 742 mmHg 61%
14:00 +28°C° 0 mm 7 mps 741 mmHg 59%
15:00 +28°C° 0 mm 6 mps 742 mmHg 61%
16:00 +28°C° 0 mm 6 mps 742 mmHg 63%
17:00 +27°C° 0 mm 5 mps 742 mmHg 65%
18:00 +26°C° 0 mm 5 mps 742 mmHg 70%
19:00 +23°C° 0 mm 4 mps 742 mmHg 76%
20:00 +22°C° 0 mm 4 mps 742 mmHg 81%
21:00 +21°C° 0 mm 3 mps 742 mmHg 81%
22:00 +21°C° 0 mm 3 mps 743 mmHg 82%
23:00 +20°C° 0 mm 3 mps 743 mmHg 82%

Day after tomorrow, 5 August, Wednesday

Time Temperature Precipitation Wind Pressure Humidity
00:00 +19°C° 0.1 mm 3 mps 743 mmHg 83%
01:00 +19°C° 0.1 mm 2 mps 743 mmHg 84%
02:00 +19°C° 0.1 mm 1 mps 744 mmHg 84%
03:00 +19°C° 0.3 mm 1 mps 744 mmHg 86%
04:00 +19°C° 0.3 mm 1 mps 744 mmHg 87%
05:00 +18°C° 0.3 mm 1 mps 744 mmHg 88%
06:00 +19°C° 0.2 mm 1 mps 745 mmHg 86%
07:00 +21°C° 0.2 mm 1 mps 745 mmHg 84%
08:00 +22°C° 0.2 mm 1 mps 746 mmHg 82%
09:00 +23°C° 0.1 mm 1 mps 746 mmHg 79%
10:00 +24°C° 0.1 mm 1 mps 747 mmHg 75%
11:00 +25°C° 0.1 mm 2 mps 747 mmHg 72%
12:00 +25°C° 0 mm 2 mps 747 mmHg 69%
13:00 +26°C° 0 mm 2 mps 747 mmHg 66%
14:00 +27°C° 0 mm 2 mps 748 mmHg 63%
15:00 +27°C° 0 mm 2 mps 748 mmHg 64%
16:00 +27°C° 0 mm 2 mps 748 mmHg 65%
17:00 +27°C° 0 mm 2 mps 748 mmHg 66%
18:00 +25°C° 0 mm 2 mps 748 mmHg 73%
19:00 +24°C° 0 mm 2 mps 748 mmHg 79%
20:00 +21°C° 0 mm 2 mps 748 mmHg 85%
21:00 +20°C° 0 mm 2 mps 748 mmHg 88%
22:00 +20°C° 0 mm 2 mps 749 mmHg 91%
23:00 +19°C° 0 mm 2 mps 749 mmHg 94%

6 August, Thursday

Time Temperature Precipitation Wind Pressure Humidity
00:00 +19°C° 0 mm 2 mps 749 mmHg 94%
01:00 +19°C° 0 mm 2 mps 749 mmHg 93%
02:00 +18°C° 0 mm 2 mps 749 mmHg 93%
03:00 +18°C° 0 mm 2 mps 749 mmHg 93%
04:00 +18°C° 0 mm 2 mps 749 mmHg 93%
05:00 +18°C° 0 mm 2 mps 750 mmHg 93%
06:00 +19°C° 0 mm 2 mps 750 mmHg 87%
07:00 +21°C° 0 mm 2 mps 750 mmHg 82%
08:00 +23°C° 0 mm 2 mps 750 mmHg 77%
09:00 +25°C° 0 mm 2 mps 751 mmHg 70%
10:00 +26°C° 0 mm 2 mps 751 mmHg 64%
11:00 +28°C° 0 mm 2 mps 751 mmHg 58%
12:00 +28°C° 0 mm 2 mps 751 mmHg 56%
13:00 +29°C° 0 mm 2 mps 751 mmHg 54%
14:00 +29°C° 0 mm 2 mps 751 mmHg 51%
15:00 +29°C° 0.1 mm 2 mps 751 mmHg 54%
16:00 +29°C° 0.1 mm 2 mps 751 mmHg 57%
17:00 +29°C° 0.1 mm 2 mps 751 mmHg 59%
18:00 +27°C° 0 mm 2 mps 751 mmHg 65%
19:00 +25°C° 0 mm 2 mps 751 mmHg 71%
20:00 +24°C° 0 mm 2 mps 751 mmHg 78%
21:00 +22°C° 0 mm 3 mps 751 mmHg 82%
22:00 +21°C° 0 mm 3 mps 751 mmHg 87%
23:00 +20°C° 0 mm 3 mps 752 mmHg 92%

7 August, Friday

Time Temperature Precipitation Wind Pressure Humidity
00:00 +20°C° 0 mm 2 mps 752 mmHg 93%
01:00 +19°C° 0 mm 2 mps 752 mmHg 94%
02:00 +19°C° 0 mm 2 mps 752 mmHg 95%
03:00 +18°C° 0 mm 2 mps 752 mmHg 95%
04:00 +18°C° 0 mm 2 mps 752 mmHg 96%
05:00 +18°C° 0 mm 2 mps 752 mmHg 97%
06:00 +19°C° 0 mm 3 mps 752 mmHg 93%
07:00 +20°C° 0 mm 3 mps 752 mmHg 90%
08:00 +21°C° 0 mm 3 mps 752 mmHg 86%
09:00 +24°C° 0 mm 3 mps 753 mmHg 80%
10:00 +25°C° 0 mm 4 mps 753 mmHg 74%
11:00 +27°C° 0 mm 4 mps 753 mmHg 68%
12:00 +27°C° 0 mm 4 mps 752 mmHg 65%
13:00 +28°C° 0 mm 4 mps 752 mmHg 62%
14:00 +28°C° 0 mm 4 mps 752 mmHg 60%
15:00 +28°C° 0.1 mm 4 mps 752 mmHg 60%
16:00 +28°C° 0.1 mm 4 mps 752 mmHg 60%
17:00 +27°C° 0.1 mm 5 mps 751 mmHg 60%
18:00 +25°C° 0 mm 4 mps 751 mmHg 64%
19:00 +23°C° 0 mm 4 mps 751 mmHg 69%
20:00 +21°C° 0 mm 4 mps 751 mmHg 73%
21:00 +20°C° 0 mm 3 mps 751 mmHg 75%
22:00 +19°C° 0 mm 3 mps 752 mmHg 78%
23:00 +18°C° 0 mm 3 mps 752 mmHg 80%

8 August, Saturday

Time Temperature Precipitation Wind Pressure Humidity
00:00 +18°C° 0 mm 3 mps 752 mmHg 83%
01:00 +17°C° 0 mm 3 mps 751 mmHg 85%
02:00 +17°C° 0 mm 2 mps 751 mmHg 87%
03:00 +16°C° 0 mm 2 mps 751 mmHg 89%
04:00 +16°C° 0 mm 2 mps 751 mmHg 91%
05:00 +15°C° 0 mm 2 mps 751 mmHg 93%
06:00 +17°C° 0 mm 3 mps 751 mmHg 88%
07:00 +18°C° 0 mm 3 mps 751 mmHg 83%
08:00 +20°C° 0 mm 3 mps 751 mmHg 79%
09:00 +21°C° 0 mm 3 mps 751 mmHg 73%
10:00 +23°C° 0 mm 4 mps 751 mmHg 67%
11:00 +25°C° 0 mm 4 mps 751 mmHg 61%
12:00 +26°C° 0 mm 4 mps 751 mmHg 59%
13:00 +26°C° 0 mm 4 mps 750 mmHg 56%
14:00 +27°C° 0 mm 4 mps 750 mmHg 54%
15:00 +27°C° 0 mm 3 mps 750 mmHg 56%
16:00 +26°C° 0 mm 3 mps 749 mmHg 58%
17:00 +26°C° 0 mm 3 mps 749 mmHg 60%
18:00 +25°C° 0 mm 3 mps 749 mmHg 65%
19:00 +22°C° 0 mm 3 mps 749 mmHg 71%
20:00 +20°C° 0 mm 2 mps 749 mmHg 76%
21:00 +20°C° 0 mm 2 mps 749 mmHg 78%
22:00 +19°C° 0 mm 2 mps 749 mmHg 81%
23:00 +18°C° 0 mm 2 mps 749 mmHg 83%
Show more